Location: Cactus School
(34.5700°N, 118.0931°W)
Time: 21:58:17
(UTC-07:00)

A-11 Canister half - Pass Details

Date: 28 April 2024
Orbit: 1525 x 1683 km, 47.3° (Epoch: 23 May)

Event Time Altitude Azimuth Distance (km) Brightness Sun altitude
Exits shadow 02:38:12 39° 137° (SE) 2,269 9.7 -34.7°
Maximum altitude 02:38:45 39° 130° (SE) 2,263 9.7 -34.6°
Drops below altitude 10° 02:47:43 10° 66° (ENE) 3,908 11.7 -33.6°
Sets 02:51:09 0° 59° (ENE) 4,914 12.5 -33.2°
